OBJECT Z, 47436

Orbit data source: Space-Track

You're viewing an Uncataloged Satellite

Recently launched and/or uncataloged satellites may have evolving metadata. Metadata may include but not limited to: Owner, Maufacturer, Bus, Motor, and Mission.

OBJECT Z, 47436 is a satellite in SSO that was launched on Sun, 24 Jan 2021 UTC launched from the Air Force Eastern Test Range (AFETR). Unknown objects in Earth's orbit typically refer to objects detected orbiting the Earth but have not yet been identified or cataloged. These objects could be anything from previously untracked satellites, spent rocket stages, debris from satellite collisions, or even natural meteoroids temporarily captured by Earth's gravity.

Loading next visibility...
Identifier
47436, 2021-006Z
Orbit
SSO
Country
Flag of TBDTBD
Related business
Manufacturer
SpaceX/Seattle
Mission
Spacecraft
Bus & Motor
Unknown
Mass
~100 kg wet, ~100 kg dry
Launch date (UTC)
2021-01-24 (6 years ago)
Launch vehicle
Unknown
Launch site
Air Force Eastern Test Range (AFETR)
Object type
Unknown
Shape & HBR
Cyl, 3.5 m
Radar Cross Section
0.110 m², Medium (>0.1 m² and < 1m²)

Expand to show TLE details & history
Last TLE update: 14 hours ago

TLE from 14 hours ago
0 OBJECT Z
1 47436U 21006Z   26207.64605502  .00005747  00000-0  18565-3 0  9999
2 47436  97.2216 248.7762 0011267  60.6923 299.5444 15.32427283305431
Epoch: 2026-07-26T15:30Z
TLE epoch observation values (Epoch: 2026-07-26T15:30:19.153Z)
Latitude
-0.00002°
Longitude
71.8554°
Altitude
467.887 km
Speed
7.634 km/s
True Right ascension
16h 35m 06s
True Declination
0° 00' 00"
Sunlit
Object was in full shadow at epoch
Visualization orbit readout
Latitude
Unknown
Longitude
Unknown
Altitude
Unknown
Speed
Unknown
Apparent Right ascension
Unknown
Apparent Declination
Unknown
Sunlit
N/A
Visualization observer readout
Local Sidereal Time
19:12:11
Azimuth
Unknown
Elevation
Unknown
Doppler factor
Unknown
Orbital elements
Apogee altitude
473.225 km
Perigee altitude
457.804 km
Semi-major axis
6,843.651 km
Eccentricity
0.00113
Inclination
97.2216°
RAAN
248.7762°
Arg. of periapsis
60.6923°
True anomaly
299.432°
Mean anomaly
299.5444°
Eccentric anomaly
299.48821°
Mean motion
3.83364 °/min
Orbital period
93.91 mins
BSTAR
0.00018565
Loading maneuver chart data...
Computing Atmospheric mass density...
Loading historical data...
Loading historical data...
Loading historical data...
Loading historical data...
Loading historical data...
Loading historical data...
Loading historical data...

Documentation

Showing up to 5 results
|